Location: *
(50.9167°S, 179.4000°W)
Time: 20:12:47
(UTC+00:00)

COSMOS 2428 - Pass Details

Date: 19 June 2024
Orbit: 843 x 857 km, 70.9° (Epoch: 17 July)

Event Time Altitude Azimuth Distance (km) Brightness Sun altitude
Exits shadow 19:12:42 - 207° (SSW) 3,190 5.2 -7.3°
Reaches altitude 10° 19:15:16 10° 190° (S) 2,525 4.8 -6.9°
Maximum altitude 19:18:52 16° 152° (SSE) 2,092 4.8 -6.4°
Drops below altitude 10° 19:22:26 10° 113° (ESE) 2,510 5.7 -5.9°
Sets 19:25:54 0° 92° (E) 3,438 6.9 -5.5°
